Weather History for Jefferson, NC

Change the Weather History Date:

Saturday, December 15, 2007

  Actual Average Record
Temperature  
Mean Temperature 36 °F -  
Max Temperature 39 °F 46 °F 68 °F (1984)
Min Temperature 33 °F 26 °F 6 °F (2010)
Degree Days  
Heating Degree Days 29    
Moisture  
Dew Point 33 °F    
Average Humidity 87    
Maximum Humidity 93    
Minimum Humidity 70    
Precipitation  
Precipitation 0.04 in - - ()
Sea Level Pressure  
Sea Level Pressure 30.12 in    
Wind  
Wind Speed 1 mph (SSE)    
Max Wind Speed 5 mph    
Max Gust Speed -    
Visibility 4 miles    
Events Fog , Rain , Snow    
Averages and records for this station are not official NWS values.
T = Trace of Precipitation, MM = Missing Value Source: NWS Daily Summary

Daily Weather History Graph

Daily Weather History Graph

Search for Another Location

Airport:

Trip Planner

Search our weather history database for the weather conditions in past years. The results will help you decide how hot, cold, wet, or windy it might be!

Date:

Astronomy

Dec. 15, 2007 Rise Set
Actual Time 7:29 AM EST 5:11 PM EST
Civil Twilight 7:01 AM EST 5:40 PM EST
Nautical Twilight 6:28 AM EST 6:12 PM EST
Astronomical Twilight 5:57 AM EST 6:43 PM EST
Moon 11:37 AM EST 11:01 PM EST
Length of Visible Light 10h 39m
Length of Day
9h 41m
Waxing Crescent, 32% of the Moon is Illuminated
Dec 15
Waxing Crescent
Dec 17
First Quarter
Dec 23
Full
Dec 31
Last Quarter
Jan 8
New

Hourly Weather History & Observations

Time (EST) Temp. Windchill Dew Point Humidity Pressure Visibility Wind Dir Wind Speed Gust Speed Precip Events Conditions
12:03 AM 39.2 °F - 33.8 °F 81% 30.20 in 10.0 mi Calm Calm - N/A   Clear
12:23 AM 39.2 °F - 35.6 °F 87% 30.20 in 10.0 mi Calm Calm - N/A   Clear
12:43 AM 37.4 °F - 33.8 °F 87% 30.20 in 10.0 mi Calm Calm - N/A   Clear
1:03 AM 37.4 °F - 33.8 °F 87% 30.20 in 10.0 mi Calm Calm - N/A   Clear
1:23 AM 37.4 °F - 33.8 °F 87% 30.19 in 10.0 mi Calm Calm - N/A   Clear
1:43 AM 37.4 °F - 33.8 °F 87% 30.19 in 10.0 mi Calm Calm - N/A   Clear
2:03 AM 37.4 °F - 33.8 °F 87% 30.20 in 10.0 mi Calm Calm - N/A   Clear
2:24 AM 37.4 °F - 33.8 °F 87% 30.19 in 10.0 mi Calm Calm - N/A   Clear
2:43 AM 37.4 °F - 33.8 °F 87% 30.19 in 10.0 mi Calm Calm - N/A   Clear
3:03 AM 35.6 °F - 32.0 °F 87% 30.17 in 10.0 mi Calm Calm - N/A   Clear
3:24 AM 39.2 °F - 33.8 °F 81% 30.18 in 10.0 mi Calm Calm - N/A   Clear
3:44 AM 39.2 °F 37.0 °F 30.2 °F 70% 30.18 in 10.0 mi SW 3.5 mph - N/A   Clear
4:07 AM 39.2 °F - 30.2 °F 70% 30.18 in 10.0 mi Calm Calm - N/A   Clear
4:23 AM 37.4 °F 34.9 °F 30.2 °F 75% 30.18 in 10.0 mi SSE 3.5 mph - N/A   Clear
5:03 AM 37.4 °F 34.9 °F 32.0 °F 81% 30.18 in 10.0 mi SSE 3.5 mph - N/A   Clear
5:23 AM 37.4 °F 34.9 °F 32.0 °F 81% 30.17 in 10.0 mi SSE 3.5 mph - N/A   Clear
5:43 AM 37.4 °F - 30.2 °F 75% 30.16 in 10.0 mi Calm Calm - N/A   Mostly Cloudy
6:03 AM 37.4 °F - 30.2 °F 75% 30.17 in 10.0 mi Calm Calm - N/A   Overcast
6:25 AM 37.4 °F - 32.0 °F 81% 30.17 in 10.0 mi Calm Calm - N/A   Overcast
6:43 AM 37.4 °F - 30.2 °F 75% 30.17 in 10.0 mi Calm Calm - N/A   Overcast
7:03 AM 37.4 °F - 32.0 °F 81% 30.17 in 10.0 mi Calm Calm - N/A   Overcast
7:23 AM 37.4 °F - 32.0 °F 81% 30.17 in 10.0 mi Calm Calm - N/A   Overcast
7:43 AM 37.4 °F - 33.8 °F 87% 30.18 in 10.0 mi Calm Calm - N/A   Overcast
8:03 AM 37.4 °F 34.9 °F 33.8 °F 87% 30.17 in 5.0 mi SSE 3.5 mph - N/A   Haze
8:23 AM 37.4 °F - 33.8 °F 87% 30.18 in 0.5 mi Calm Calm - N/A Fog Fog
8:43 AM 37.4 °F 34.9 °F 33.8 °F 87% 30.19 in 0.2 mi SSE 3.5 mph - N/A Fog Fog
9:03 AM 37.4 °F - 35.6 °F 93% 30.18 in 0.2 mi Calm Calm - N/A Fog Fog
9:23 AM 37.4 °F - 35.6 °F 93% 30.19 in 0.2 mi Calm Calm - N/A Fog Fog
9:43 AM 37.4 °F - 35.6 °F 93% 30.19 in 0.2 mi Calm Calm - N/A Fog Fog
10:04 AM 37.4 °F 33.8 °F 35.6 °F 93% 30.19 in 0.2 mi SSE 4.6 mph - N/A Fog Fog
10:23 AM 37.4 °F 34.9 °F 35.6 °F 93% 30.19 in 0.2 mi SSE 3.5 mph - N/A Fog Fog
10:43 AM 37.4 °F 34.9 °F 35.6 °F 93% 30.19 in 0.2 mi SE 3.5 mph - N/A Fog Fog
11:05 AM 37.4 °F - 35.6 °F 93% 30.17 in 0.2 mi Calm Calm - N/A Fog Fog
11:23 AM 37.4 °F 34.9 °F 35.6 °F 93% 30.16 in 0.2 mi South 3.5 mph - N/A   Light Drizzle
11:43 AM 37.4 °F 34.9 °F 35.6 °F 93% 30.15 in 0.2 mi South 3.5 mph - N/A Fog Fog
12:03 PM 37.4 °F 34.9 °F 35.6 °F 93% 30.14 in 0.2 mi SSE 3.5 mph - N/A   Drizzle
12:23 PM 37.4 °F 34.9 °F 35.6 °F 93% 30.13 in 0.2 mi South 3.5 mph - N/A Fog Fog
12:43 PM 37.4 °F 34.9 °F 35.6 °F 93% 30.11 in 0.2 mi South 3.5 mph - N/A Rain Rain
1:03 PM 35.6 °F 32.8 °F 33.8 °F 93% 30.11 in 0.2 mi SSE 3.5 mph - N/A   Drizzle
1:24 PM 35.6 °F 32.8 °F 33.8 °F 93% 30.09 in 0.2 mi SSE 3.5 mph - N/A Snow Light Snow
1:44 PM 35.6 °F 32.8 °F 33.8 °F 93% 30.08 in 0.2 mi SSE 3.5 mph - N/A Rain Light Rain
2:03 PM 35.6 °F - 33.8 °F 93% 30.06 in 0.2 mi Calm Calm - N/A   Overcast
2:23 PM 35.6 °F 32.8 °F 32.0 °F 87% 30.05 in 0.2 mi South 3.5 mph - N/A   Overcast
2:43 PM 35.6 °F 31.7 °F 33.8 °F 93% 30.04 in 0.2 mi South 4.6 mph - 0.01 in   Overcast
3:03 PM 33.8 °F 30.8 °F 32.0 °F 93% 30.03 in 0.2 mi South 3.5 mph - N/A   Overcast
3:23 PM 33.8 °F - 32.0 °F 93% 30.02 in 0.2 mi Calm Calm - N/A   Overcast
3:44 PM 33.8 °F 30.8 °F 32.0 °F 93% 30.02 in 0.2 mi SSE 3.5 mph - N/A   Overcast
4:03 PM 33.8 °F 30.8 °F 32.0 °F 93% 30.02 in 0.2 mi South 3.5 mph - N/A   Overcast
4:23 PM 33.8 °F 29.6 °F 30.2 °F 87% 30.01 in 0.2 mi SSE 4.6 mph - N/A   Overcast
4:44 PM 33.8 °F 30.8 °F 30.2 °F 87% 30.01 in 0.2 mi SSE 3.5 mph - N/A   Overcast
5:03 PM 33.8 °F 30.8 °F 30.2 °F 87% 29.99 in 0.8 mi SE 3.5 mph - N/A   Overcast
5:26 PM 33.8 °F - 30.2 °F 87% 29.98 in 0.5 mi Calm Calm - N/A   Overcast
5:43 PM 33.8 °F - 30.2 °F 87% 29.97 in 0.8 mi Calm Calm - 0.01 in   Overcast
6:03 PM 33.8 °F - 30.2 °F 87% 29.94 in 2.5 mi Calm Calm - N/A   Overcast
6:24 PM 33.8 °F 30.8 °F 30.2 °F 87% 29.93 in 1.2 mi ESE 3.5 mph - N/A   Overcast
6:44 PM 33.8 °F - 30.2 °F 87% 29.93 in 0.8 mi Calm Calm - 0.01 in   Overcast
7:04 PM 33.8 °F - 30.2 °F 87% 29.93 in 0.5 mi Calm Calm - N/A   Overcast
7:23 PM 33.8 °F - 30.2 °F 87% 29.92 in 1.5 mi Calm Calm - 0.01 in   Overcast
7:43 PM 33.8 °F - 30.2 °F 87% 29.91 in 1.2 mi Calm Calm - 0.01 in   Overcast
8:03 PM 33.8 °F 30.8 °F 32.0 °F 93% 29.89 in 5.0 mi NE 3.5 mph - N/A   Overcast
8:23 PM 33.8 °F - 32.0 °F 93% 29.90 in 2.5 mi Calm Calm - N/A   Overcast
8:43 PM 33.8 °F - 32.0 °F 93% 29.88 in 1.2 mi Calm Calm - 0.09 in Snow Snow
9:03 PM 33.8 °F - 32.0 °F 93% 29.86 in 1.2 mi Calm Calm - 0.04 in Snow Light Snow
9:23 PM 33.8 °F - 32.0 °F 93% 29.86 in 1.0 mi Calm Calm - 0.09 in Snow Snow
9:43 PM 33.8 °F - 32.0 °F 93% 29.85 in 0.5 mi Calm Calm - 0.34 in Snow Snow
10:03 PM 33.8 °F - 32.0 °F 93% 29.86 in 1.8 mi Calm Calm - 0.03 in Snow Snow
10:23 PM 35.6 °F - 32.0 °F 87% 29.85 in 0.8 mi Calm Calm - 0.06 in   Overcast
10:43 PM 35.6 °F - 33.8 °F 93% 29.83 in 1.0 mi Calm Calm - 0.10 in Snow Snow
11:03 PM 35.6 °F - 33.8 °F 93% 29.79 in 0.8 mi Calm Calm - 0.01 in   Overcast
11:23 PM 35.6 °F - 33.8 °F 93% 29.77 in 0.5 mi Calm Calm - 0.02 in   Overcast
11:43 PM 33.8 °F 29.6 °F 32.0 °F 93% 29.77 in 0.2 mi ESE 4.6 mph - 0.03 in   Overcast